Location: Isola Pescaroli
(45.0500°N, 10.1667°E)
Time: 01:24:49
(UTC+00:00)

NOSS 3-3 (A) - Pass Details

Date: 03 March 2021
Orbit: 815 x 1397 km, 63.4° (Epoch: 15 April)

Event Time Altitude Azimuth Distance (km) Brightness Sun altitude
Rises 20:08:50 0° 322° (NW) 3,963 8.1 -31.7°
Reaches altitude 10° 20:11:24 10° 323° (NW) 3,080 7.3 -32.1°
Enters shadow 20:18:47 80° 33° (NNE) 1,299 4.4 -33.3°
